FENGYUN 1C DEB

Satellite information

Favourite Embed

Satellite Type and Status

DEBRISIN ORBIT

Key statistics

Satellite FENGYUN 1C DEB at a glance.

Uptime

9672

Days in orbit

Revolutions

≈ 13.2

Per day

Orbit

SSO

Sun Synchronous Orbit

Inclination

102.4

Latest

Satellite identification and parameters

Extended collection of information and parameters for FENGYUN 1C DEB.

Object identification

Identified? True

Debris? True

Object name: FENGYUN 1C DEB

International designator: 1999-025CQE

Object number (NORAD): 32088

Object ID (CCSDS): 32088

Country: PEOPLES REPUBLIC OF CHINA (PRC)

Current information (Y/N): Y

RCS size: SMALL

Orbital parameters

Period: 108.695 minutes

Inclination: 102.4016 deg

SMA: 7544.541 km

Apoapsis: 1510.011 km

Periapsis: 822.801 km

RAAN: 160.3773 deg

Eccentricy: 0.0455435

Argument of periapsis: 90.9045 deg

Mean anomaly: 274.4259 deg

Mean motion: 13.24809798 rev/day

Mean motion (dot): 0.00003751 rev/day2

B* drag term: 0.0050487304 1/REarth

Two-line elements (TLE)

Creation date: Oct. 30, 2025, 3:32 a.m.

Reference frame: TEME

Reference center: EARTH

Epoch: Oct. 29, 2025, 8:41 p.m. UTC

TLE line 0: 0 FENGYUN 1C DEB

TLE line 1: 1 32088U 99025CQE 25302.86220796 .00003751 00000-0 50487-2 0 9990

TLE line 2: 2 32088 102.4016 160.3773 0455435 90.9045 274.4259 13.24809798592636

Live tracking on map

Real-time ground track for satellite FENGYUN 1C DEB.

In-orbit conjunctions

A list of the most updated potential collisions computed for object FENGYUN 1C DEB.

Target Orbit TCA Probability of collision Miss distance Type
SL-3 R/B LEO 2025-08-22 00:55:24 0.0001827156 647.0 (m) ROCKET BODY
COSMOS 1999 LEO 2024-12-24 18:22:36 0.000189169 474.0 (m) PAYLOAD

Associated space launch

Chinese polar orbiting meteorological satellite

FENGYUN 1C DEB was lifted into orbit during the mission ‘Long March 4B | Feng Yun 1C’, on board a Long March 4B space rocket.

The launch took place on May 10, 1999, 1:33 a.m. from Launch Complex 7.

For more information about the launch, click the button.

Launch to space Long March 4B | Feng Yun 1C
Long March 4B | Feng Yun 1C

Agency: N/A

Status: Launch Successful

Launch date: May 10, 1999, 1:33 a.m. UTC

Rocket: Long March 4B

Launch pad: Launch Complex 7

Location: Taiyuan Satellite Launch Center, People's Republic of China

...

Latest news about this satellite

There are no fresh news available about this satellite. Check back as we update our databases every day.


Newsletter sign-up

Weekly statistics, charts and insights to help you stay on top of the space industry.